SCP
0 0 0 0 0 0 0 0 0 0 0 0 0 0 0 0 0 0 0 0 0 0 0 0 0 0 0 0 0 0 0 0 0 0 0 0 0 0
0 0 0 0 0 0 0 0 0 0 0 0 0 0 0 0 0 0 0 0 0 0 0 0 0 0 0 0 0 0 0 0 0 0 0 0 0 0
0 0 0 0 0 0 0 0 0 0 0 0 0 0 0 0 0 0 0 0 0 0 0 0 0 0 0 0 0 0 0 0 0 0 0 0 0 0
0 0 0 0 0 0 0 0 0 0 0 0 0 0 0 0 0 0 0 0 0 0 0 0 0 0 0 0 0 0 0 0 0 0 0 0 0 0
0 0 0 0 0 0 0 0 0 0 0 0 0 0 0 0 0 0 0 0 0 0 0 0 0 0 0 0 0 0 0 0 0 0 0 0 0 0
0 0 0 0 0 0 0 0 0 0 0 0 0 0 0 0 0 0 0 0 0 0 0 0 0 0 0 0 0 0 0 0 0 0 0 0 0 0
0 0 0 0 0 0 0 0 0 0 0 0 0 0 0 0 0 0 0 0 0 0 0 0 0 0 0 0 0 0 0 0 0 0 0 0 0 0
0 0 0 0 0 0 0 0 0 0 0 0 0 0 0 0 0 0 0 0 0 0 0 0 0 0 0 0 0 0 0 0 0 0 0 0 0 0
0 0 0 0 0 0 0 0 0 0 0 0 0 0 0 0 0 0 0 0 0 0 0 0 0 0 0 0 0 0 0 0 0 0 0 0 0 0
0 0 0 0 0 0 0 0 0 0 0 0 0 0 0 0 0 0 0 0 0 0 0 0 0 0 0 0 0 0 0 0 0 0 0 0 0 0
0 0 0 0 0 0 0 0 0 0 0 0 0 0 0 0 0 0 0 0 0 0 0 0 0 0 0 0 0 0 0 0 0 0 0 0 0 0
0 0 0 0 0 0 0 0 0 0 0 0 0 0 0 0 0 0 0 0 0 0 0 0 0 0 0 0 0 0 0 0 0 0 0 0 0 0
0 0 0 0 0 0 0 0 0 0 0 0 0 0 0 0 0 0 0 0 0 0 0 0 0 0 0 0 0 0 0 0 0 0 0 0 0 0
0 0 0 0 0 0 0 0 0 0 0 0 0 0 0 0 0 0 0 0 0 0 0 0 0 0 0 0 0 0 0 0 0 0 0 0 0 0
0 0 0 0 0 0 0 0 0 0 0 0 0 0 0 0 0 0 0 0 0 0 0 0 0 0 0 0 0 0 0 0 0 0 0 0 0 0
0 0 0 0 0 0 0 0 0 0 0 0 0 0 0 0 0 0 0 0 0 0 0 0 0 0 0 0 0 0 0 0 0 0 0 0 0 0
0 0 0 0 0 0 0 0 0 0 0 0 0 0 0 0 0 0 0 0 0 0 0 0 0 0 0 0 0 0 0 0 0 0 0 0 0 0
0 0 0 0 0 0 0 0 0 0 0 0 0 0 0 0 0 0 0 0 0 0 0 0 0 0 0 0 0 0 0 0 0 0 0 0 0 0
0 0 0 0 0 0 0 0 0 0 0 0 0 0 0 0 0 0 0 0 0 0 0 0 0 0 0 0 0 0 0 0 0 0 0 0 0 0
0 0 0 0 0 0 0 0 0 0 0 0 0 0 0 0 0 0 0 0 0 0 0 0 0 0 0 0 0 0 0 0 0 0 0 0 0 0
0 0 0 0 0 0 0 0 0 0 0 0 0 0 0 0 0 0 0 0 0 0 0 0 0 0 0 0 0 0 0 0 0 0 0 0 0 0
0 0 0 0 0 0 0 0 0 0 0 0 0 0 0 0 0 0 0 0 0 0 0 0 0 0 0 0 0 0 0 0 0 0 0 0 0 0
0 0 0 0 0 0 0 0 0 0 0 0 0 0 0 0 0 0 0 0 0 0 0 0 0 0 0 0 0 0 0 0 0 0 0 0 0 0
Wind_Speed
4 4 2 2 2 2 2 3 3 3 3 3 3 2 3 4 10 7 6 18 24 24 24 24 24 25 25 26 26 26 26 26 26 27 27 27 28 28
3 3 2 1 2 2 2 2 3 4 4 3 4 4 5 8 14 8 8 22 22 23 24 24 25 26 26 26 26 26 26 26 27 27 27 28 28 28
3 2 2 2 2 2 2 2 3 3 6 5 3 4 5 7 9 8 8 8 10 21 24 25 25 25 26 26 26 26 26 27 27 27 27 28 28 28
2 1 2 2 3 3 3 3 4 4 5 7 4 4 6 7 8 9 10 10 8 20 24 25 26 26 25 26 26 26 26 27 27 27 27 27 27 28
1 0 2 3 4 3 4 4 4 5 4 5 6 4 5 6 8 9 10 9 11 15 20 22 24 25 25 26 26 27 27 27 26 26 26 26 27 27
2 1 2 3 4 4 4 5 5 5 5 5 6 5 5 6 6 7 9 6 9 11 15 17 20 23 25 26 26 26 26 26 26 26 26 26 26 27
2 2 3 5 6 5 4 4 4 4 4 5 6 7 7 6 7 7 11 10 9 9 8 8 9 9 12 18 22 24 26 26 27 27 27 27 26 26
3 3 4 5 7 10 12 12 11 7 5 5 6 8 9 9 8 9 10 12 10 3 5 10 8 10 8 7 19 26 27 27 27 27 26 25 25 24
2 3 3 5 7 5 9 13 12 14 15 10 9 9 11 10 10 11 10 11 13 8 9 13 9 11 9 12 24 27 28 27 26 24 23 23 23 24
1 2 3 4 6 8 6 5 5 7 11 9 8 10 10 9 9 10 10 11 11 8 7 11 11 11 10 8 21 26 25 24 23 23 24 25 25 25
3 3 5 5 12 15 8 6 7 7 13 17 18 17 20 21 17 8 7 9 12 10 5 6 6 8 10 10 12 19 20 23 25 26 26 25 24 23
3 4 8 10 14 15 8 6 8 8 8 8 10 12 11 12 16 8 6 8 10 8 3 4 5 6 9 5 5 7 11 20 25 25 25 25 24 14
3 3 5 15 16 17 14 6 11 11 5 5 7 8 7 6 6 5 6 7 10 10 7 5 7 5 7 10 6 7 9 10 10 14 19 23 22 17
4 4 6 16 17 16 11 13 17 13 5 6 7 7 7 8 8 8 9 9 10 14 13 10 10 9 11 13 12 8 7 8 10 11 9 15 17 20
5 11 14 15 14 9 12 15 11 5 6 6 7 8 7 8 8 8 9 9 11 12 12 11 11 11 11 12 12 12 12 10 9 8 7 8 9 9
5 7 11 12 10 10 10 8 5 5 6 6 8 9 8 7 8 7 9 9 10 11 8 9 11 12 12 13 13 15 12 10 8 9 10 11 11 10
4 2 3 5 5 5 5 5 5 6 6 7 8 9 9 9 9 7 6 7 9 11 13 8 7 9 13 13 14 14 13 12 11 10 11 13 11 10
6 4 5 5 6 7 7 8 7 7 7 8 8 8 9 9 10 9 7 8 10 11 11 11 10 11 8 10 16 15 12 12 11 11 11 14 14 10
3 4 5 5 6 6 7 8 8 8 7 8 8 9 9 9 9 10 9 9 10 11 11 10 9 10 12 14 9 13 12 12 12 12 11 12 15 12
3 4 5 6 6 7 7 8 8 9 8 8 8 9 8 9 10 10 10 10 11 12 12 10 8 9 11 13 13 13 15 13 12 13 12 11 13 17
5 5 6 6 6 7 7 7 8 9 9 9 9 9 9 9 10 10 10 15 14 11 12 12 11 17 12 10 11 12 11 13 16 14 14 13 13 11
6 6 6 6 7 7 7 7 8 9 9 9 9 9 9 9 10 12 11 11 11 11 13 12 12 11 9 10 13 14 15 14 15 19 19 17 10 8
6 7 7 7 7 6 7 8 9 9 9 9 10 10 10 10 10 10 11 11 11 12 12 12 11 9 9 10 12 13 16 16 12 11 11 15 17 18
Wind_Direction
125 129 134 147 140 150 156 160 180 260 275 265 282 287 306 305 307 306 296 306 306 306 305 303 302 302 300 298 297 295 294 293 291 288 285 282 280 278
126 136 144 161 165 170 175 181 182 204 250 252 250 271 294 303 307 309 296 306 307 304 302 302 301 300 299 298 297 296 294 292 290 288 287 285 283 282
124 152 191 193 196 199 195 200 208 204 252 265 249 271 280 286 296 292 290 286 289 299 302 301 300 300 300 299 297 296 295 294 293 291 290 288 286 284
133 159 226 227 223 220 216 224 229 224 239 274 275 271 271 278 283 286 296 294 289 297 299 300 300 300 299 298 297 297 297 296 294 291 289 286 284 282
99 215 259 245 246 240 235 239 243 250 242 265 282 272 273 281 286 285 285 283 287 293 298 298 297 297 297 298 299 299 297 295 293 290 287 284 281 279
32 321 280 255 249 247 245 246 248 258 262 268 280 284 282 281 281 292 298 283 286 290 289 291 293 297 296 296 296 295 294 292 289 287 285 282 280 278
348 322 305 296 279 273 263 249 241 248 260 268 282 292 294 298 297 295 299 298 286 277 276 280 284 281 284 289 292 290 289 288 288 288 287 284 282 279
340 334 325 322 317 323 314 304 296 287 284 277 285 291 294 292 292 294 298 302 300 276 288 293 284 284 281 272 285 290 291 292 291 290 287 284 282 279
354 343 343 337 343 306 300 303 302 300 298 296 289 286 288 290 289 291 290 292 294 297 297 293 288 286 282 285 293 293 293 293 291 290 289 288 287 285
321 310 304 303 306 303 282 279 271 276 285 285 270 272 276 278 275 288 293 294 287 281 274 284 288 286 288 282 288 288 290 291 292 294 293 290 286 282
303 311 319 302 307 314 312 294 286 281 293 296 295 297 301 305 306 302 299 300 298 294 270 265 279 293 288 277 275 283 289 293 294 293 291 289 287 285
311 309 321 319 314 318 311 297 295 291 288 296 300 301 298 294 300 292 280 287 293 294 261 264 284 306 299 260 250 269 282 287 290 291 291 290 287 283
314 307 304 318 319 319 320 306 298 309 317 311 303 298 296 289 287 276 265 272 282 277 279 288 283 276 274 290 279 265 272 278 284 285 288 287 284 279
309 295 296 316 323 326 325 314 319 329 322 307 302 300 301 300 298 292 282 270 263 269 276 277 277 280 282 286 289 285 278 276 277 280 276 280 281 280
305 313 320 327 332 328 319 324 331 322 305 303 302 299 292 287 291 292 290 280 275 270 268 262 263 271 271 276 281 287 293 288 275 269 269 269 272 271
309 322 334 334 330 322 322 322 311 299 306 302 301 298 298 295 294 292 296 301 298 293 272 251 251 258 269 271 275 280 280 278 279 276 277 276 270 262
344 351 330 325 325 322 317 310 307 311 310 302 300 301 302 300 298 296 287 293 289 294 301 297 260 250 254 264 273 272 273 273 272 274 278 280 273 261
356 330 323 320 318 319 319 317 315 310 306 304 300 297 298 299 299 298 291 292 292 292 293 297 301 299 282 254 238 258 267 271 275 275 274 280 281 269
345 312 308 308 308 308 308 308 307 304 300 297 295 294 295 295 296 297 298 297 294 292 291 291 293 296 301 303 273 234 256 278 283 281 274 273 279 280
311 301 303 304 305 305 305 303 303 303 301 297 295 294 293 294 296 296 296 295 296 297 297 294 287 287 288 292 293 286 271 270 278 282 282 277 273 275
310 304 300 300 300 299 298 297 296 297 297 297 295 294 294 294 293 293 295 297 300 297 298 298 291 295 290 284 285 289 288 279 278 281 286 286 286 282
305 303 301 298 298 296 295 295 296 296 297 295 294 294 293 291 292 294 295 297 297 295 295 295 295 297 295 295 295 296 300 301 297 293 285 277 281 285
305 303 300 299 296 294 293 294 294 294 293 293 293 294 295 295 294 292 293 294 296 298 302 304 305 303 301 298 298 299 301 305 307 309 301 294 292 287